TimeEST,TemperatureF,Dew PointF,Humidity,Sea Level PressureIn,VisibilityMPH,Wind Direction,Wind SpeedMPH,Gust SpeedMPH,PrecipitationIn,Events,Conditions,WindDirDegrees,DateUTC
12:15 AM,26.6,19.4,74,29.89,7.0,West,16.1,29.9,N/A,Snow,Light Snow,270,2014-01-15 05:15:00
12:35 AM,26.6,17.6,69,29.89,10.0,West,17.3,26.5,N/A,,Overcast,280,2014-01-15 05:35:00
12:55 AM,26.6,19.4,74,29.89,10.0,West,17.3,25.3,N/A,Snow,Light Snow,280,2014-01-15 05:55:00
1:15 AM,26.6,19.4,74,29.90,10.0,West,12.7,21.9,N/A,Snow,Light Snow,270,2014-01-15 06:15:00
1:35 AM,24.8,17.6,74,29.90,10.0,West,11.5,17.3,N/A,Snow,Light Snow,280,2014-01-15 06:35:00
1:55 AM,24.8,19.4,80,29.90,2.5,West,15.0,19.6,N/A,Snow,Light Snow,280,2014-01-15 06:55:00
2:15 AM,23.0,17.6,80,29.91,7.0,West,18.4,21.9,N/A,Snow,Light Snow,280,2014-01-15 07:15:00
2:35 AM,23.0,17.6,80,29.91,10.0,West,16.1,24.2,N/A,Snow,Light Snow,270,2014-01-15 07:35:00
2:55 AM,23.0,17.6,80,29.92,10.0,West,16.1,20.7,N/A,Snow,Light Snow,280,2014-01-15 07:55:00
3:15 AM,23.0,15.8,74,29.93,10.0,WNW,13.8,23.0,N/A,Snow,Light Snow,290,2014-01-15 08:15:00
3:35 AM,23.0,15.8,74,29.94,10.0,West,15.0,20.7,N/A,,Overcast,280,2014-01-15 08:35:00
3:55 AM,23.0,17.6,80,29.94,10.0,West,12.7,20.7,N/A,,Overcast,270,2014-01-15 08:55:00
4:15 AM,23.0,17.6,80,29.94,10.0,West,15.0,20.7,N/A,,Overcast,260,2014-01-15 09:15:00
4:35 AM,23.0,17.6,80,29.95,5.0,West,11.5,-,N/A,Snow,Light Snow,280,2014-01-15 09:35:00
4:55 AM,23.0,17.6,80,29.96,10.0,West,10.4,-,N/A,Snow,Light Snow,280,2014-01-15 09:55:00
5:15 AM,23.0,14.0,68,29.96,10.0,WNW,11.5,20.7,N/A,Snow,Light Snow,300,2014-01-15 10:15:00
5:35 AM,23.0,14.0,68,29.97,10.0,WNW,9.2,16.1,N/A,Snow,Light Snow,290,2014-01-15 10:35:00
5:55 AM,23.0,14.0,68,29.97,10.0,West,12.7,-,N/A,Snow,Light Snow,280,2014-01-15 10:55:00
6:15 AM,21.2,15.8,80,29.98,5.0,WNW,10.4,-,N/A,Snow,Light Snow,290,2014-01-15 11:15:00
6:35 AM,21.2,15.8,80,29.98,10.0,WNW,8.1,-,N/A,Snow,Light Snow,290,2014-01-15 11:35:00
6:55 AM,21.2,14.0,74,29.99,10.0,West,11.5,17.3,N/A,,Overcast,280,2014-01-15 11:55:00
7:15 AM,21.2,14.0,74,30.00,10.0,West,10.4,20.7,N/A,,Overcast,280,2014-01-15 12:15:00
7:35 AM,21.2,12.2,68,30.01,10.0,West,11.5,-,N/A,,Overcast,280,2014-01-15 12:35:00
7:55 AM,21.2,12.2,68,30.02,10.0,WNW,8.1,-,N/A,,Overcast,290,2014-01-15 12:55:00
8:15 AM,19.4,12.2,74,30.03,10.0,WNW,15.0,18.4,N/A,,Overcast,290,2014-01-15 13:15:00
8:35 AM,19.4,12.2,74,30.04,10.0,WNW,10.4,-,N/A,,Scattered Clouds,290,2014-01-15 13:35:00
8:55 AM,21.2,12.2,68,30.05,10.0,WNW,8.1,-,N/A,,Mostly Cloudy,290,2014-01-15 13:55:00
9:15 AM,21.2,12.2,68,30.05,10.0,WNW,5.8,-,N/A,,Overcast,290,2014-01-15 14:15:00
9:35 AM,21.2,12.2,68,30.06,10.0,WNW,6.9,-,N/A,Snow,Light Snow,290,2014-01-15 14:35:00
9:55 AM,21.2,14.0,74,30.07,10.0,WNW,11.5,18.4,N/A,Snow,Light Snow,290,2014-01-15 14:55:00
10:15 AM,21.2,14.0,74,30.07,10.0,WNW,10.4,-,N/A,Snow,Light Snow,300,2014-01-15 15:15:00
10:35 AM,21.2,12.2,68,30.08,10.0,West,11.5,-,N/A,,Overcast,280,2014-01-15 15:35:00
10:55 AM,23.0,12.2,63,30.08,10.0,WNW,10.4,-,N/A,,Overcast,290,2014-01-15 15:55:00
11:15 AM,23.0,14.0,68,30.08,10.0,West,10.4,-,N/A,,Overcast,280,2014-01-15 16:15:00
11:35 AM,23.0,14.0,68,30.08,10.0,West,11.5,-,N/A,Snow,Light Snow,260,2014-01-15 16:35:00
11:55 AM,21.2,14.0,74,30.07,10.0,West,12.7,-,N/A,Snow,Light Snow,260,2014-01-15 16:55:00
12:15 PM,23.0,14.0,68,30.07,10.0,West,10.4,-,N/A,,Overcast,270,2014-01-15 17:15:00
12:35 PM,23.0,12.2,63,30.06,10.0,West,11.5,-,N/A,,Overcast,260,2014-01-15 17:35:00
12:55 PM,21.2,12.2,68,30.05,10.0,West,9.2,-,N/A,,Overcast,260,2014-01-15 17:55:00
1:15 PM,23.0,12.2,63,30.05,10.0,West,10.4,-,N/A,,Overcast,260,2014-01-15 18:15:00
1:35 PM,21.2,12.2,68,30.05,10.0,WSW,11.5,18.4,N/A,Snow,Light Snow,250,2014-01-15 18:35:00
1:55 PM,21.2,12.2,68,30.06,10.0,West,9.2,-,N/A,,Overcast,270,2014-01-15 18:55:00
2:15 PM,21.2,12.2,68,30.05,10.0,West,12.7,-,N/A,,Overcast,260,2014-01-15 19:15:00
2:35 PM,21.2,12.2,68,30.05,10.0,West,10.4,-,N/A,,Overcast,270,2014-01-15 19:35:00
2:55 PM,23.0,12.2,63,30.06,10.0,West,10.4,-,N/A,,Overcast,270,2014-01-15 19:55:00
3:15 PM,23.0,12.2,63,30.06,10.0,West,11.5,-,N/A,,Overcast,260,2014-01-15 20:15:00
3:35 PM,23.0,12.2,63,30.06,10.0,West,11.5,-,N/A,,Overcast,260,2014-01-15 20:35:00
3:55 PM,23.0,12.2,63,30.06,10.0,West,15.0,-,N/A,,Overcast,260,2014-01-15 20:55:00
4:15 PM,23.0,12.2,63,30.07,10.0,West,10.4,-,N/A,,Overcast,270,2014-01-15 21:15:00
4:35 PM,21.2,12.2,68,30.07,10.0,West,12.7,-,N/A,,Overcast,260,2014-01-15 21:35:00
4:55 PM,21.2,12.2,68,30.07,10.0,West,10.4,16.1,N/A,Snow,Light Snow,270,2014-01-15 21:55:00
5:15 PM,21.2,12.2,68,30.06,10.0,WSW,10.4,-,N/A,,Overcast,250,2014-01-15 22:15:00
5:35 PM,21.2,14.0,74,30.06,10.0,West,10.4,-,N/A,Snow,Light Snow,270,2014-01-15 22:35:00
5:55 PM,21.2,14.0,74,30.06,7.0,West,6.9,-,N/A,Snow,Light Snow,270,2014-01-15 22:55:00
6:15 PM,21.2,12.2,68,30.07,10.0,West,11.5,-,N/A,Snow,Light Snow,260,2014-01-15 23:15:00
6:35 PM,21.2,10.4,63,30.07,10.0,WSW,9.2,20.7,N/A,Snow,Light Snow,240,2014-01-15 23:35:00
6:55 PM,21.2,12.2,68,30.07,10.0,WSW,15.0,-,N/A,Snow,Light Snow,250,2014-01-15 23:55:00
7:15 PM,19.4,12.2,74,30.07,10.0,WSW,16.1,-,N/A,Snow,Light Snow,250,2014-01-16 00:15:00
7:35 PM,19.4,10.4,68,30.07,10.0,West,13.8,-,N/A,,Overcast,260,2014-01-16 00:35:00
7:55 PM,19.4,12.2,74,30.07,10.0,SW,10.4,-,N/A,,Overcast,230,2014-01-16 00:55:00
8:15 PM,19.4,12.2,74,30.08,10.0,WSW,13.8,19.6,N/A,,Overcast,240,2014-01-16 01:15:00
8:35 PM,19.4,12.2,74,30.07,10.0,WSW,12.7,-,N/A,Snow,Light Snow,240,2014-01-16 01:35:00
8:55 PM,19.4,10.4,68,30.07,10.0,WSW,11.5,-,N/A,,Overcast,240,2014-01-16 01:55:00
9:15 PM,19.4,10.4,68,30.06,10.0,WSW,13.8,17.3,N/A,,Overcast,250,2014-01-16 02:15:00
9:35 PM,19.4,10.4,68,30.05,10.0,WSW,9.2,-,N/A,,Overcast,240,2014-01-16 02:35:00
9:55 PM,19.4,12.2,74,30.05,10.0,WSW,11.5,-,N/A,,Overcast,240,2014-01-16 02:55:00
10:15 PM,19.4,12.2,74,30.03,10.0,SW,9.2,-,N/A,,Overcast,230,2014-01-16 03:15:00
10:35 PM,19.4,12.2,74,30.03,10.0,SW,10.4,-,N/A,,Overcast,220,2014-01-16 03:35:00
10:55 PM,17.6,10.4,73,30.02,10.0,SSW,8.1,-,N/A,,Scattered Clouds,210,2014-01-16 03:55:00
11:15 PM,17.6,12.2,79,30.01,10.0,South,8.1,-,N/A,,Scattered Clouds,190,2014-01-16 04:15:00
11:35 PM,17.6,12.2,79,30.00,10.0,South,9.2,-,N/A,,Clear,190,2014-01-16 04:35:00
11:55 PM,17.6,12.2,79,29.99,10.0,SSW,11.5,-,N/A,,Clear,200,2014-01-16 04:55:00